This is the latest recevied weather packets stored in our database for station/object KC5EZZ-2. If no packets are shown the sender has not sent any weather packets the latest 10 day(s).
| Time | Temp. | Humidity | Pressure | Rain* | Wind** | Luminosity | Snow |
|---|---|---|---|---|---|---|---|
| 1777436899 | 25.56° C | - | - | 0 mm | 3.58 m/s, 170° | - | - |
| 1777436601 | 25.56° C | - | - | 0 mm | 3.58 m/s, 181° | - | - |
| 1777436300 | 26.11° C | - | - | 0 mm | 4.02 m/s, 159° | - | - |
| 1777435998 | 26.11° C | - | - | 0 mm | 3.58 m/s, 186° | - | - |
| 1777435698 | 26.11° C | - | - | 0 mm | 3.58 m/s, 187° | - | - |
| 1777435399 | 25.56° C | - | - | 0 mm | 3.13 m/s, 173° | - | - |
| 1777435096 | 25.56° C | - | - | 0 mm | 3.13 m/s, 193° | - | - |
| 1777434497 | 25° C | - | - | 0 mm | 2.24 m/s, 172° | - | - |
| 1777434193 | 25° C | - | - | 0 mm | 0 m/s | - | - |
| 1777433894 | 25° C | - | - | 0 mm | 0 m/s | - | - |
| 1777433594 | 25° C | - | - | 0 mm | 0 m/s | - | - |
| 1777433292 | 25° C | - | - | 0 mm | 1.79 m/s, 183° | - | - |
| 1777432992 | 25.56° C | - | - | 0 mm | 0.89 m/s, 177° | - | - |
| 1777432693 | 25° C | - | - | 0 mm | 0.89 m/s, 163° | - | - |
| 1777432390 | 25.56° C | - | - | 0 mm | 1.34 m/s, 174° | - | - |
| 1777432090 | 25.56° C | - | - | 0 mm | 1.79 m/s, 187° | - | - |
| 1777431791 | 26.11° C | - | - | 0 mm | 1.34 m/s, 167° | - | - |
| 1777431488 | 25.56° C | - | - | 0 mm | 1.79 m/s, 172° | - | - |
| 1777431189 | 26.11° C | - | - | 0 mm | 2.24 m/s, 181° | - | - |
| 1777430889 | 26.11° C | - | - | 0 mm | 1.79 m/s, 173° | - | - |
| 1777430586 | 26.11° C | - | - | 0 mm | 1.79 m/s, 172° | - | - |
| 1777430287 | 26.67° C | - | - | 0 mm | 1.34 m/s, 177° | - | - |
| 1777429987 | 26.67° C | - | - | 0 mm | 1.34 m/s, 176° | - | - |
| 1777429685 | 26.67° C | - | - | 0 mm | 1.34 m/s, 184° | - | - |
| 1777429385 | 27.22° C | - | - | 0 mm | 1.34 m/s, 188° | - | - |
* Rain latest hour (hover to see other rain measurements)
** Current wind speed in m/s (hover to see current wind gust speed)